This is the latest recevied weather packets stored in our database for station/object F6BIJ-13. If no packets are shown the sender has not sent any weather packets the latest 10 day(s).
| Time | Temp. | Humidity | Pressure | Rain* | Wind** | Luminosity | Snow |
|---|---|---|---|---|---|---|---|
| 1777800277 | 18.33° C | 55% | 1017.9 hPa | 0 mm | - | - | - |
| 1777799917 | 16.67° C | 54% | 1017.8 hPa | 0 mm | - | - | - |
| 1777799557 | 18.33° C | 52% | 1017.8 hPa | 0 mm | - | - | - |
| 1777799197 | 18.33° C | 53% | 1017.8 hPa | 0 mm | - | - | - |
| 1777798837 | 17.78° C | 53% | 1017.8 hPa | 0 mm | - | - | - |
| 1777798477 | 17.78° C | 57% | 1017.7 hPa | 0 mm | - | - | - |
| 1777798117 | 16.67° C | 57% | 1017.7 hPa | 0 mm | - | - | - |
| 1777797757 | 16.67° C | 58% | 1017.7 hPa | 0 mm | - | - | - |
| 1777797396 | 17.78° C | 59% | 1017.6 hPa | 0 mm | - | - | - |
| 1777797037 | 16.67° C | 58% | 1017.8 hPa | 0 mm | - | - | - |
| 1777796677 | 16.67° C | 61% | 1017.8 hPa | 0 mm | - | - | - |
| 1777796317 | 17.22° C | 56% | 1017.7 hPa | 0 mm | - | - | - |
| 1777795957 | 18.33° C | 53% | 1017.7 hPa | 0 mm | - | - | - |
| 1777795597 | 18.89° C | 54% | 1017.7 hPa | 0 mm | - | - | - |
| 1777795237 | 19.44° C | 52% | 1017.6 hPa | 0 mm | - | - | - |
| 1777794877 | 19.44° C | 56% | 1017.6 hPa | 0 mm | - | - | - |
| 1777794517 | 18.33° C | 58% | 1017.6 hPa | 0 mm | - | - | - |
| 1777794157 | 17.22° C | 57% | 1017.6 hPa | 0 mm | - | - | - |
| 1777793796 | 16.11° C | 66% | 1017.6 hPa | 0 mm | - | - | - |
| 1777793437 | 15.56° C | 62% | 1017.6 hPa | 0 mm | - | - | - |
| 1777793077 | 16.11° C | 61% | 1017.6 hPa | 0 mm | - | - | - |
| 1777792717 | 15.56° C | 63% | 1017.7 hPa | 0 mm | - | - | - |
| 1777792357 | 15.56° C | 62% | 1017.8 hPa | 0 mm | - | - | - |
| 1777791996 | 15.56° C | 58% | 1017.8 hPa | 0 mm | - | - | - |
| 1777791637 | 16.67° C | 61% | 1017.8 hPa | 0 mm | - | - | - |
* Rain latest 24 hours (hover to see other rain measurements)
** Current wind speed in m/s (hover to see current wind gust speed)